Ostend, Belgium

6:19 PM CET on December 15, 2017 (GMT +0100)
Ostend

Weather History for EBOS - January, 2013

Change the Weather History Date:

Friday, January 11, 2013

  Actual Average Record
Temperature  
Mean Temperature 36 °F -  
Max Temperature 42 °F 43 °F 51 °F (2005)
Min Temperature 30 °F 33 °F 21 °F (2009)
Degree Days  
Heating Degree Days 29    
Moisture  
Dew Point 31 °F    
Average Humidity 82    
Maximum Humidity 87    
Minimum Humidity 71    
Precipitation  
Precipitation 0.08 in - - ()
Sea Level Pressure  
Sea Level Pressure 30.03 in    
Wind  
Wind Speed 8 mph ()    
Max Wind Speed 13 mph    
Max Gust Speed -    
Visibility 5.5 miles    
Events Rain , Snow    
Averages and records for this station are not official NWS values.
T = Trace of Precipitation, MM = Missing Value Source: Averaged Metar Reports

Daily Weather History Graph

Daily Weather History Graph

Search for Another Location

Airport or City:

Trip Planner

Search our weather history database for the weather conditions in past years. The results will help you decide how hot, cold, wet, or windy it might be!

Date:

Astronomy

Jan. 11, 2013 Rise Set
Actual Time 8:48 AM CET 5:04 PM CET
Civil Twilight 8:10 AM CET 5:43 PM CET
Nautical Twilight 7:28 AM CET 6:24 PM CET
Astronomical Twilight 6:48 AM CET 7:04 PM CET
Moon 8:05 AM CET (1/11) 5:09 PM CET (1/11)
Length of Visible Light 9h 32m
Length of Day
8h 15m
Waning Crescent, 0% of the Moon is Illuminated
Jan 11
Waning Crescent
Jan 11
New
Jan 19
First Quarter
Jan 27
Full
Feb 3
Last Quarter

Hourly Weather History & Observations

Time (CET) Temp. Windchill Dew Point Humidity Pressure Visibility Wind Dir Wind Speed Gust Speed Precip Events Conditions
12:20 AM 41.0 °F 34.7 °F 35.6 °F 81% 29.95 in 6.2 mi NNW 10.4 mph - N/A   Mostly Cloudy
12:50 AM 41.0 °F 34.7 °F 35.6 °F 81% 29.95 in 6.2 mi NNW 10.4 mph - N/A   Partly Cloudy
1:00 AM 40 °F - 35 °F 78% 29.95 in 9 mi NNW 8.9 mph - -   Overcast
1:20 AM 41.0 °F 34.7 °F 35.6 °F 81% 29.95 in 6.2 mi NNW 10.4 mph - N/A   Partly Cloudy
1:50 AM 41.0 °F 34.7 °F 35.6 °F 81% 29.95 in 6.2 mi NNW 10.4 mph - N/A   Scattered Clouds
2:20 AM 41.0 °F 35.2 °F 35.6 °F 81% 29.95 in 6.2 mi North 9.2 mph - N/A   Scattered Clouds
2:50 AM 41.0 °F 34.7 °F 35.6 °F 81% 29.95 in 6.2 mi North 10.4 mph - N/A   Partly Cloudy
3:20 AM 41.0 °F 33.9 °F 35.6 °F 81% 29.95 in 6.2 mi North 12.7 mph - N/A   Partly Cloudy
3:50 AM 41.0 °F 35.2 °F 33.8 °F 76% 29.95 in 6.2 mi NW 9.2 mph - N/A   Partly Cloudy
4:00 AM 40 °F - 34 °F 72% 29.97 in 9 mi NW 8.9 mph - -   Scattered Clouds
4:20 AM 41.0 °F 33.9 °F 35.6 °F 81% 29.98 in 6.2 mi NW 12.7 mph - N/A   Scattered Clouds
4:50 AM 41.0 °F 34.7 °F 35.6 °F 81% 29.98 in 6.2 mi NW 10.4 mph - N/A   Mostly Cloudy
5:20 AM 42.8 °F 37.5 °F 35.6 °F 76% 29.98 in 6.2 mi NW 9.2 mph - N/A   Mostly Cloudy
5:50 AM 41.0 °F 35.2 °F 35.6 °F 81% 29.98 in 6.2 mi NW 9.2 mph - N/A   Mostly Cloudy
6:20 AM 42.8 °F 37.0 °F 37.4 °F 81% 29.98 in 6.2 mi WNW 10.4 mph - N/A   Mostly Cloudy
6:50 AM 42.8 °F 36.6 °F 37.4 °F 81% 29.98 in 6.2 mi WNW 11.5 mph - N/A   Mostly Cloudy
7:00 AM 42 °F - 38 °F 79% 30.00 in 9 mi WNW 11.2 mph - -   Overcast
7:20 AM 39.2 °F 31.6 °F 35.6 °F 87% 30.01 in 2.8 mi ENE 12.7 mph - N/A Rain Light Rain
7:50 AM 37.4 °F 29.3 °F 33.8 °F 87% 30.01 in 2.8 mi ENE 12.7 mph - N/A Rain Light Rain
8:20 AM 35.6 °F 28.0 °F 32.0 °F 87% 30.04 in 2.8 mi ENE 10.4 mph - N/A Rain Light Rain
8:50 AM 35.6 °F 28.6 °F 32.0 °F 87% 30.04 in - East 9.2 mph - N/A Rain Light Rain
9:20 AM 35.6 °F 28.0 °F 32.0 °F 87% 30.04 in 2.5 mi East 10.4 mph - N/A   Light Drizzle
9:50 AM 33.8 °F 27.0 °F 30.2 °F 87% 30.06 in 3.7 mi East 8.1 mph - N/A Rain Light Rain
10:00 AM 35 °F - 31 °F 79% 30.07 in 4 mi East 8.9 mph - - Rain Light Rain
10:20 AM 33.8 °F 25.8 °F 30.2 °F 87% 30.06 in 3.7 mi ENE 10.4 mph - N/A   Mostly Cloudy
10:50 AM 33.8 °F 25.8 °F 30.2 °F 87% 30.06 in 4.3 mi ENE 10.4 mph - N/A   Mostly Cloudy
11:20 AM 33.8 °F 24.8 °F 30.2 °F 87% 30.06 in 4.3 mi ENE 12.7 mph - N/A   Mostly Cloudy
11:50 AM 33.8 °F 24.8 °F 28.4 °F 81% 30.06 in 5.6 mi ENE 12.7 mph - N/A   Mostly Cloudy
12:20 PM 33.8 °F 26.4 °F 28.4 °F 81% 30.09 in 5.6 mi ENE 9.2 mph - N/A   Mostly Cloudy
12:50 PM 33.8 °F 27.7 °F 30.2 °F 87% 30.06 in - East 6.9 mph - N/A Snow Light Snow
1:00 PM 34 °F - 29 °F 77% 30.09 in 3 mi East 6.7 mph - - Snow Light Snow
1:20 PM 33.8 °F 28.6 °F 28.4 °F 81% 30.06 in 3.7 mi East 5.8 mph - N/A   Mostly Cloudy
1:50 PM 33.8 °F 27.0 °F 30.2 °F 87% 30.06 in 4.3 mi East 8.1 mph - N/A   Mostly Cloudy
2:20 PM 33.8 °F 26.4 °F 28.4 °F 81% 30.06 in 6.2 mi East 9.2 mph - N/A   Mostly Cloudy
2:50 PM 33.8 °F 27.0 °F 28.4 °F 81% 30.06 in 6.2 mi East 8.1 mph - N/A   Partly Cloudy
3:20 PM 33.8 °F 26.4 °F 28.4 °F 81% 30.06 in 5.0 mi East 9.2 mph - N/A   Unknown
3:50 PM 33.8 °F 27.7 °F 28.4 °F 81% 30.06 in 5.6 mi East 6.9 mph - N/A   Unknown
4:00 PM 34 °F - 29 °F 75% 30.08 in 6 mi East 6.7 mph - -   Partly Cloudy
4:20 PM 33.8 °F 28.6 °F 28.4 °F 81% 30.06 in - SE 5.8 mph - N/A   Clear
4:50 PM 33.8 °F 28.6 °F 28.4 °F 81% 30.06 in 6.2 mi SSE 5.8 mph - N/A   Scattered Clouds
5:20 PM 33.8 °F 28.6 °F 30.2 °F 87% 30.06 in 6.2 mi SSE 5.8 mph - N/A   Scattered Clouds
5:50 PM 33.8 °F 29.6 °F 28.4 °F 81% 30.06 in - SSE 4.6 mph - N/A   Clear
6:20 PM 33.8 °F 29.6 °F 28.4 °F 81% 30.06 in - SE 4.6 mph - N/A   Clear
6:50 PM 33.8 °F 29.6 °F 28.4 °F 81% 30.09 in 5.0 mi SE 4.6 mph - N/A   Unknown
7:00 PM 34 °F - 28 °F 72% 30.10 in 5 mi SE 4.5 mph - -   Partly Cloudy
7:20 PM 33.8 °F 29.6 °F 28.4 °F 81% 30.09 in - SE 4.6 mph - N/A   Clear
7:50 PM 33.8 °F 30.8 °F 28.4 °F 81% 30.09 in - SE 3.5 mph - N/A   Clear
8:20 PM 33.8 °F 30.8 °F 28.4 °F 81% 30.09 in - SSE 3.5 mph - N/A   Clear
8:50 PM 33.8 °F 29.6 °F 28.4 °F 81% 30.06 in - SE 4.6 mph - N/A   Clear
9:20 PM 33.8 °F 29.6 °F 28.4 °F 81% 30.06 in - SSE 4.6 mph - N/A   Clear
9:50 PM 32.0 °F 27.5 °F 26.6 °F 80% 30.06 in - SSE 4.6 mph - N/A   Clear
10:00 PM 33 °F - 27 °F 71% 30.09 in 7 mi SSE 4.5 mph - -   Mostly Cloudy
10:20 PM 32.0 °F 26.4 °F 28.4 °F 87% 30.06 in - SSE 5.8 mph - N/A   Clear
10:50 PM 32.0 °F 26.4 °F 26.6 °F 80% 30.06 in - SE 5.8 mph - N/A   Clear
11:20 PM 30.2 °F 24.3 °F 26.6 °F 86% 30.06 in - SE 5.8 mph - N/A   Clear
11:50 PM 30.2 °F 24.3 °F 26.6 °F 86% 30.06 in - South 5.8 mph - N/A   Clear